When you browse on this site, cookies collect data to enhance your experience and personalize the content and advertising you see.
Visit our Privacy Policy to learn more. By continuing to use the site, you agree to this use of cookies and data.
  • In Lithuania
  • List of Countries
  • For 7 days
  • Water Temperature
  • Weather Map
  • Weather Widgets
  • user-avatar
    Login

    Hourly Weather Toronto

    Today, 3 June, Wednesday

    Time Temperature Precipitation Wind Pressure Humidity
    00:00 +19°C° 0.1 mm 2 mps 742 mmHg 95%
    01:00 +19°C° 0.1 mm 2 mps 741 mmHg 96%
    02:00 +19°C° 0 mm 2 mps 741 mmHg 94%
    03:00 +18°C° 0 mm 3 mps 741 mmHg 92%
    04:00 +18°C° 0 mm 3 mps 741 mmHg 89%
    05:00 +18°C° 0.2 mm 3 mps 741 mmHg 87%
    06:00 +18°C° 0.2 mm 3 mps 741 mmHg 85%
    07:00 +18°C° 0.2 mm 3 mps 740 mmHg 83%
    08:00 +18°C° 0.1 mm 2 mps 741 mmHg 83%
    09:00 +18°C° 0.1 mm 2 mps 741 mmHg 83%
    10:00 +19°C° 0.1 mm 2 mps 741 mmHg 83%
    11:00 +21°C° 0 mm 2 mps 741 mmHg 75%
    12:00 +24°C° 0 mm 3 mps 741 mmHg 67%
    13:00 +26°C° 0 mm 4 mps 741 mmHg 60%
    14:00 +26°C° 0.2 mm 4 mps 741 mmHg 59%
    15:00 +26°C° 0.2 mm 4 mps 741 mmHg 59%
    16:00 +26°C° 0.2 mm 4 mps 741 mmHg 59%
    17:00 +25°C° 0 mm 3 mps 741 mmHg 63%
    18:00 +24°C° 0 mm 3 mps 741 mmHg 67%
    19:00 +22°C° 0 mm 3 mps 742 mmHg 71%
    20:00 +21°C° 0 mm 3 mps 742 mmHg 74%
    21:00 +20°C° 0 mm 2 mps 742 mmHg 78%
    22:00 +19°C° 0 mm 2 mps 743 mmHg 81%
    23:00 +18°C° 0 mm 2 mps 743 mmHg 83%

    Tomorrow, 4 June, Thursday

    Time Temperature Precipitation Wind Pressure Humidity
    00:00 +17°C° 0 mm 2 mps 743 mmHg 84%
    01:00 +17°C° 0 mm 2 mps 743 mmHg 85%
    02:00 +16°C° 0 mm 2 mps 744 mmHg 86%
    03:00 +16°C° 0 mm 1 mps 744 mmHg 86%
    04:00 +16°C° 0 mm 1 mps 744 mmHg 87%
    05:00 +16°C° 0 mm 1 mps 745 mmHg 83%
    06:00 +18°C° 0 mm 1 mps 745 mmHg 78%
    07:00 +19°C° 0 mm 1 mps 745 mmHg 74%
    08:00 +21°C° 0 mm 1 mps 745 mmHg 68%
    09:00 +23°C° 0 mm 1 mps 745 mmHg 61%
    10:00 +25°C° 0 mm 2 mps 745 mmHg 54%
    11:00 +25°C° 0 mm 2 mps 746 mmHg 51%
    12:00 +26°C° 0 mm 2 mps 746 mmHg 48%
    13:00 +27°C° 0 mm 3 mps 746 mmHg 45%
    14:00 +27°C° 0 mm 2 mps 746 mmHg 44%
    15:00 +27°C° 0 mm 2 mps 745 mmHg 43%
    16:00 +27°C° 0 mm 2 mps 745 mmHg 43%
    17:00 +26°C° 0 mm 2 mps 745 mmHg 46%
    18:00 +25°C° 0 mm 1 mps 745 mmHg 49%
    19:00 +24°C° 0 mm 1 mps 745 mmHg 52%
    20:00 +23°C° 0 mm 1 mps 746 mmHg 56%
    21:00 +22°C° 0 mm 1 mps 746 mmHg 61%
    22:00 +21°C° 0 mm 1 mps 746 mmHg 65%
    23:00 +20°C° 0 mm 1 mps 746 mmHg 65%

    Day after tomorrow, 5 June, Friday

    Time Temperature Precipitation Wind Pressure Humidity
    00:00 +20°C° 0 mm 1 mps 746 mmHg 66%
    01:00 +20°C° 0 mm 1 mps 746 mmHg 66%
    02:00 +19°C° 0 mm 1 mps 746 mmHg 67%
    03:00 +19°C° 0 mm 1 mps 746 mmHg 68%
    04:00 +19°C° 0 mm 1 mps 746 mmHg 68%
    05:00 +20°C° 0 mm 1 mps 746 mmHg 66%
    06:00 +21°C° 0 mm 1 mps 746 mmHg 64%
    07:00 +21°C° 0 mm 1 mps 746 mmHg 62%
    08:00 +23°C° 0 mm 1 mps 747 mmHg 58%
    09:00 +25°C° 0 mm 2 mps 747 mmHg 53%
    10:00 +27°C° 0 mm 2 mps 747 mmHg 49%
    11:00 +27°C° 0 mm 3 mps 746 mmHg 47%
    12:00 +28°C° 0 mm 3 mps 746 mmHg 45%
    13:00 +29°C° 0 mm 3 mps 746 mmHg 42%
    14:00 +29°C° 0 mm 3 mps 745 mmHg 43%
    15:00 +29°C° 0 mm 3 mps 745 mmHg 44%
    16:00 +29°C° 0 mm 4 mps 745 mmHg 45%
    17:00 +28°C° 0 mm 4 mps 745 mmHg 51%
    18:00 +27°C° 0 mm 4 mps 745 mmHg 56%
    19:00 +26°C° 0 mm 3 mps 745 mmHg 61%
    20:00 +26°C° 0.2 mm 4 mps 745 mmHg 66%
    21:00 +25°C° 0.2 mm 4 mps 745 mmHg 70%
    22:00 +23°C° 0.2 mm 4 mps 745 mmHg 74%
    23:00 +22°C° 0.5 mm 4 mps 744 mmHg 77%

    6 June, Saturday

    Time Temperature Precipitation Wind Pressure Humidity
    00:00 +22°C° 0.5 mm 4 mps 744 mmHg 80%
    01:00 +21°C° 0.5 mm 4 mps 744 mmHg 83%
    02:00 +20°C° 0 mm 3 mps 744 mmHg 85%
    03:00 +20°C° 0 mm 2 mps 744 mmHg 86%
    04:00 +19°C° 0 mm 2 mps 744 mmHg 87%
    05:00 +19°C° 0 mm 2 mps 744 mmHg 83%
    06:00 +20°C° 0 mm 2 mps 744 mmHg 78%
    07:00 +20°C° 0 mm 2 mps 745 mmHg 74%
    08:00 +21°C° 0 mm 2 mps 745 mmHg 67%
    09:00 +22°C° 0 mm 3 mps 745 mmHg 60%
    10:00 +24°C° 0 mm 3 mps 745 mmHg 52%
    11:00 +25°C° 0 mm 3 mps 745 mmHg 49%
    12:00 +26°C° 0 mm 4 mps 745 mmHg 46%
    13:00 +26°C° 0 mm 4 mps 745 mmHg 43%
    14:00 +26°C° 0 mm 5 mps 745 mmHg 45%
    15:00 +25°C° 0 mm 5 mps 745 mmHg 46%
    16:00 +24°C° 0 mm 6 mps 745 mmHg 48%
    17:00 +22°C° 0 mm 6 mps 746 mmHg 53%
    18:00 +21°C° 0 mm 6 mps 746 mmHg 59%
    19:00 +19°C° 0 mm 6 mps 746 mmHg 65%
    20:00 +17°C° 0 mm 6 mps 747 mmHg 63%
    21:00 +17°C° 0 mm 5 mps 747 mmHg 62%
    22:00 +16°C° 0 mm 5 mps 748 mmHg 60%
    23:00 +15°C° 0 mm 6 mps 748 mmHg 61%

    7 June, Sunday

    Time Temperature Precipitation Wind Pressure Humidity
    00:00 +14°C° 0 mm 6 mps 749 mmHg 61%
    01:00 +13°C° 0 mm 6 mps 749 mmHg 62%
    02:00 +11°C° 0 mm 6 mps 749 mmHg 62%
    03:00 +10°C° 0 mm 5 mps 750 mmHg 63%
    04:00 +9°C° 0 mm 5 mps 750 mmHg 63%
    05:00 +9°C° 0 mm 5 mps 751 mmHg 63%
    06:00 +9°C° 0 mm 5 mps 752 mmHg 63%
    07:00 +10°C° 0 mm 4 mps 752 mmHg 62%
    08:00 +12°C° 0 mm 4 mps 752 mmHg 59%
    09:00 +13°C° 0 mm 4 mps 752 mmHg 55%
    10:00 +14°C° 0 mm 4 mps 753 mmHg 52%
    11:00 +15°C° 0 mm 4 mps 752 mmHg 50%
    12:00 +17°C° 0 mm 3 mps 752 mmHg 48%
    13:00 +18°C° 0 mm 3 mps 752 mmHg 47%
    14:00 +18°C° 0 mm 3 mps 752 mmHg 48%
    15:00 +18°C° 0 mm 3 mps 752 mmHg 50%
    16:00 +18°C° 0 mm 3 mps 752 mmHg 52%
    17:00 +17°C° 0 mm 3 mps 753 mmHg 54%
    18:00 +15°C° 0 mm 4 mps 753 mmHg 56%
    19:00 +14°C° 0 mm 4 mps 753 mmHg 58%
    20:00 +14°C° 0 mm 4 mps 753 mmHg 58%
    21:00 +13°C° 0 mm 3 mps 754 mmHg 58%
    22:00 +13°C° 0 mm 3 mps 754 mmHg 58%
    23:00 +12°C° 0 mm 3 mps 754 mmHg 62%

    8 June, Monday

    Time Temperature Precipitation Wind Pressure Humidity
    00:00 +12°C° 0 mm 3 mps 754 mmHg 65%
    01:00 +11°C° 0 mm 3 mps 754 mmHg 69%
    02:00 +11°C° 0 mm 3 mps 755 mmHg 67%
    03:00 +12°C° 0 mm 2 mps 755 mmHg 65%
    04:00 +12°C° 0 mm 2 mps 755 mmHg 63%
    05:00 +12°C° 0 mm 2 mps 755 mmHg 60%
    06:00 +13°C° 0 mm 2 mps 756 mmHg 56%
    07:00 +14°C° 0 mm 2 mps 756 mmHg 53%
    08:00 +15°C° 0 mm 2 mps 756 mmHg 49%
    09:00 +17°C° 0 mm 2 mps 756 mmHg 45%
    10:00 +18°C° 0 mm 3 mps 756 mmHg 41%
    11:00 +19°C° 0 mm 2 mps 756 mmHg 39%
    12:00 +20°C° 0 mm 2 mps 756 mmHg 37%
    13:00 +21°C° 0 mm 2 mps 755 mmHg 36%
    14:00 +21°C° 0 mm 2 mps 755 mmHg 35%
    15:00 +21°C° 0 mm 2 mps 754 mmHg 35%
    16:00 +21°C° 0 mm 2 mps 754 mmHg 34%
    17:00 +20°C° 0 mm 2 mps 754 mmHg 37%
    18:00 +19°C° 0 mm 2 mps 754 mmHg 40%
    19:00 +19°C° 0 mm 1 mps 753 mmHg 43%
    20:00 +18°C° 0 mm 1 mps 753 mmHg 43%
    21:00 +16°C° 0 mm 1 mps 753 mmHg 42%
    22:00 +16°C° 0 mm 1 mps 753 mmHg 42%
    23:00 +15°C° 0 mm 1 mps 753 mmHg 43%
    Show more